When you browse on this site, cookies collect data to enhance your experience and personalize the content and advertising you see.
Visit our Privacy Policy to learn more. By continuing to use the site, you agree to this use of cookies and data.
  • In Romania
  • List of Countries
  • For 7 days
  • Water Temperature
  • Satellite Maps
  • Weather Map
  • Weather Widgets
  • user-avatar
    Login

    Hourly Weather Formby

    Today, 24 May, Friday

    Time Temperature Precipitation Wind Pressure Humidity
    00:00 +11°C° 0 mm 4 mps 762 mmHg 86%
    01:00 +11°C° 0 mm 4 mps 762 mmHg 85%
    02:00 +11°C° 0 mm 4 mps 762 mmHg 84%
    03:00 +11°C° 0 mm 3 mps 763 mmHg 84%
    04:00 +12°C° 0 mm 3 mps 763 mmHg 81%
    05:00 +12°C° 0 mm 3 mps 763 mmHg 79%
    06:00 +13°C° 0 mm 2 mps 763 mmHg 75%
    07:00 +13°C° 0 mm 3 mps 763 mmHg 71%
    08:00 +13°C° 0 mm 4 mps 763 mmHg 67%
    09:00 +14°C° 0 mm 4 mps 763 mmHg 63%
    10:00 +15°C° 0 mm 5 mps 763 mmHg 61%
    11:00 +15°C° 0 mm 5 mps 763 mmHg 60%
    12:00 +16°C° 0 mm 5 mps 763 mmHg 58%
    13:00 +16°C° 0 mm 5 mps 762 mmHg 58%
    14:00 +16°C° 0 mm 5 mps 762 mmHg 59%
    15:00 +16°C° 0 mm 5 mps 762 mmHg 59%
    16:00 +15°C° 0 mm 5 mps 762 mmHg 62%
    17:00 +15°C° 0 mm 5 mps 762 mmHg 64%
    18:00 +15°C° 0 mm 5 mps 762 mmHg 67%
    19:00 +14°C° 0 mm 4 mps 762 mmHg 72%
    20:00 +13°C° 0 mm 4 mps 763 mmHg 77%
    21:00 +12°C° 0 mm 4 mps 763 mmHg 82%
    22:00 +12°C° 0 mm 4 mps 763 mmHg 82%
    23:00 +12°C° 0 mm 4 mps 763 mmHg 82%

    Tomorrow, 25 May, Saturday

    Time Temperature Precipitation Wind Pressure Humidity
    00:00 +11°C° 0 mm 4 mps 763 mmHg 83%
    01:00 +11°C° 0 mm 4 mps 763 mmHg 83%
    02:00 +10°C° 0 mm 4 mps 763 mmHg 84%
    03:00 +10°C° 0 mm 4 mps 763 mmHg 84%
    04:00 +10°C° 0 mm 4 mps 763 mmHg 83%
    05:00 +11°C° 0 mm 4 mps 763 mmHg 82%
    06:00 +11°C° 0 mm 3 mps 763 mmHg 81%
    07:00 +12°C° 0 mm 4 mps 763 mmHg 76%
    08:00 +13°C° 0 mm 4 mps 763 mmHg 71%
    09:00 +14°C° 0 mm 4 mps 763 mmHg 66%
    10:00 +14°C° 0 mm 4 mps 763 mmHg 63%
    11:00 +15°C° 0 mm 4 mps 763 mmHg 61%
    12:00 +17°C° 0 mm 4 mps 763 mmHg 58%
    13:00 +15°C° 0 mm 4 mps 763 mmHg 61%
    14:00 +15°C° 0 mm 4 mps 762 mmHg 65%
    15:00 +15°C° 0 mm 4 mps 762 mmHg 69%
    16:00 +16°C° 0.1 mm 3 mps 762 mmHg 72%
    17:00 +16°C° 0.1 mm 3 mps 762 mmHg 74%
    18:00 +15°C° 0.1 mm 2 mps 761 mmHg 77%
    19:00 +14°C° 0 mm 3 mps 761 mmHg 79%
    20:00 +14°C° 0 mm 4 mps 761 mmHg 82%
    21:00 +14°C° 0 mm 6 mps 761 mmHg 84%
    22:00 +14°C° 0 mm 6 mps 761 mmHg 86%
    23:00 +14°C° 0 mm 6 mps 760 mmHg 88%

    Day after tomorrow, 26 May, Sunday

    Time Temperature Precipitation Wind Pressure Humidity
    00:00 +14°C° 0 mm 6 mps 760 mmHg 90%
    01:00 +14°C° 0 mm 6 mps 760 mmHg 90%
    02:00 +14°C° 0 mm 5 mps 759 mmHg 90%
    03:00 +13°C° 0 mm 5 mps 759 mmHg 90%
    04:00 +14°C° 0.2 mm 6 mps 759 mmHg 89%
    05:00 +14°C° 0.2 mm 6 mps 758 mmHg 89%
    06:00 +14°C° 0.2 mm 6 mps 758 mmHg 88%
    07:00 +15°C° 0.1 mm 7 mps 758 mmHg 85%
    08:00 +15°C° 0.1 mm 8 mps 758 mmHg 83%
    09:00 +16°C° 0.1 mm 8 mps 757 mmHg 80%
    10:00 +16°C° 0.2 mm 8 mps 758 mmHg 78%
    11:00 +16°C° 0.2 mm 9 mps 758 mmHg 76%
    12:00 +17°C° 0.2 mm 9 mps 758 mmHg 73%
    13:00 +16°C° 0 mm 8 mps 758 mmHg 71%
    14:00 +15°C° 0 mm 8 mps 758 mmHg 68%
    15:00 +15°C° 0 mm 8 mps 758 mmHg 66%
    16:00 +14°C° 0.1 mm 7 mps 758 mmHg 67%
    17:00 +14°C° 0.1 mm 7 mps 758 mmHg 69%
    18:00 +13°C° 0.1 mm 6 mps 758 mmHg 70%
    19:00 +13°C° 0.1 mm 6 mps 758 mmHg 72%
    20:00 +13°C° 0.1 mm 6 mps 758 mmHg 74%
    21:00 +11°C° 0.1 mm 6 mps 758 mmHg 76%
    22:00 +11°C° 0.2 mm 6 mps 758 mmHg 77%
    23:00 +11°C° 0.2 mm 6 mps 758 mmHg 78%

    27 May, Monday

    Time Temperature Precipitation Wind Pressure Humidity
    00:00 +11°C° 0.2 mm 6 mps 758 mmHg 79%
    01:00 +10°C° 0.1 mm 7 mps 758 mmHg 80%
    02:00 +10°C° 0.1 mm 7 mps 758 mmHg 81%
    03:00 +10°C° 0.1 mm 7 mps 758 mmHg 82%
    04:00 +10°C° 0.2 mm 7 mps 758 mmHg 81%
    05:00 +10°C° 0.2 mm 7 mps 758 mmHg 81%
    06:00 +10°C° 0.2 mm 7 mps 758 mmHg 80%
    07:00 +10°C° 0.3 mm 7 mps 758 mmHg 78%
    08:00 +11°C° 0.3 mm 7 mps 757 mmHg 77%
    09:00 +11°C° 0.3 mm 7 mps 757 mmHg 75%
    10:00 +12°C° 0.2 mm 7 mps 757 mmHg 72%
    11:00 +12°C° 0.2 mm 7 mps 757 mmHg 70%
    12:00 +14°C° 0.2 mm 7 mps 756 mmHg 68%
    13:00 +14°C° 0.1 mm 7 mps 756 mmHg 67%
    14:00 +14°C° 0.1 mm 7 mps 756 mmHg 65%
    15:00 +14°C° 0.1 mm 7 mps 755 mmHg 64%
    16:00 +14°C° 0.3 mm 6 mps 755 mmHg 66%
    17:00 +14°C° 0.3 mm 6 mps 755 mmHg 69%
    18:00 +13°C° 0.3 mm 6 mps 754 mmHg 72%
    19:00 +12°C° 0.3 mm 5 mps 754 mmHg 75%
    20:00 +12°C° 0.3 mm 5 mps 754 mmHg 78%
    21:00 +11°C° 0.3 mm 4 mps 754 mmHg 82%
    22:00 +11°C° 0.1 mm 4 mps 754 mmHg 83%
    23:00 +10°C° 0.1 mm 3 mps 754 mmHg 84%

    28 May, Tuesday

    Time Temperature Precipitation Wind Pressure Humidity
    00:00 +10°C° 0.1 mm 3 mps 754 mmHg 85%
    01:00 +10°C° 0.2 mm 3 mps 754 mmHg 86%
    02:00 +10°C° 0.2 mm 3 mps 754 mmHg 87%
    03:00 +9°C° 0.2 mm 3 mps 754 mmHg 87%
    04:00 +10°C° 0 mm 3 mps 754 mmHg 86%
    05:00 +10°C° 0 mm 4 mps 755 mmHg 84%
    06:00 +10°C° 0 mm 4 mps 755 mmHg 83%
    07:00 +10°C° 0.1 mm 5 mps 756 mmHg 78%
    08:00 +11°C° 0.1 mm 6 mps 757 mmHg 73%
    09:00 +12°C° 0.1 mm 7 mps 757 mmHg 68%
    10:00 +11°C° 0 mm 7 mps 758 mmHg 66%
    11:00 +11°C° 0 mm 7 mps 758 mmHg 65%
    12:00 +11°C° 0 mm 7 mps 759 mmHg 63%
    13:00 +11°C° 0 mm 6 mps 760 mmHg 63%
    14:00 +11°C° 0 mm 6 mps 760 mmHg 62%
    15:00 +12°C° 0 mm 5 mps 761 mmHg 62%
    16:00 +12°C° 0.1 mm 5 mps 761 mmHg 62%
    17:00 +13°C° 0.1 mm 5 mps 762 mmHg 62%
    18:00 +13°C° 0.1 mm 5 mps 762 mmHg 63%
    19:00 +12°C° 0.1 mm 5 mps 763 mmHg 65%
    20:00 +11°C° 0.1 mm 4 mps 763 mmHg 68%
    21:00 +10°C° 0.1 mm 4 mps 764 mmHg 70%
    22:00 +10°C° 0.1 mm 4 mps 764 mmHg 72%
    23:00 +10°C° 0.1 mm 4 mps 765 mmHg 75%

    29 May, Wednesday

    Time Temperature Precipitation Wind Pressure Humidity
    00:00 +8°C° 0.1 mm 4 mps 765 mmHg 77%
    01:00 +8°C° 0 mm 5 mps 765 mmHg 77%
    02:00 +8°C° 0 mm 5 mps 765 mmHg 77%
    03:00 +7°C° 0 mm 5 mps 765 mmHg 77%
    04:00 +8°C° 0 mm 5 mps 765 mmHg 75%
    05:00 +8°C° 0 mm 4 mps 765 mmHg 73%
    06:00 +8°C° 0 mm 4 mps 766 mmHg 71%
    07:00 +9°C° 0.1 mm 5 mps 766 mmHg 67%
    08:00 +10°C° 0.1 mm 5 mps 766 mmHg 64%
    09:00 +10°C° 0.1 mm 6 mps 766 mmHg 61%
    10:00 +11°C° 0 mm 6 mps 766 mmHg 59%
    11:00 +13°C° 0 mm 6 mps 766 mmHg 57%
    12:00 +13°C° 0 mm 6 mps 766 mmHg 55%
    13:00 +13°C° 0 mm 6 mps 766 mmHg 54%
    14:00 +14°C° 0 mm 5 mps 765 mmHg 54%
    15:00 +14°C° 0 mm 5 mps 765 mmHg 54%
    16:00 +14°C° 0 mm 5 mps 765 mmHg 55%
    17:00 +14°C° 0 mm 5 mps 765 mmHg 57%
    18:00 +14°C° 0 mm 5 mps 765 mmHg 58%
    19:00 +13°C° 0 mm 5 mps 765 mmHg 60%
    20:00 +11°C° 0 mm 6 mps 765 mmHg 61%
    21:00 +11°C° 0 mm 7 mps 765 mmHg 62%
    22:00 +10°C° 0.5 mm 7 mps 764 mmHg 67%
    23:00 +10°C° 0.5 mm 7 mps 763 mmHg 72%
    Show more